Home > Weather > St. Albert > Past weeks

Flag for Canada Weather for the Past 2 Weeks in St. Albert, Alberta, Canada

Now
19 °F

Cold.


Feels Like: 9 °F
Forecast: 22 / 37 °F
Wind: 9 mph from South

Location: Edmonton Municipal

Current Time: Feb 12, 2016 at 10:14:31 PM

Latest Report: Feb 12, 2016 at 9:00 PM


Visibility: N/A

Pressure: 30.05 "Hg (27.63 "Hg at 653m altitude)

Humidity: 91%

Dew point: 17 °F

Location of St. AlbertLocation

Historic Weather in St. Albert — Graph

°F

St. Albert Temperature Yesterday

Maximum temperature yesterday: 25 °F (at 1:00 PM)
Minimum temperature yesterday: 18 °F (at 9:00 PM)
Average temperature yesterday: 22 °F

High & Low Weather Summary for the Past Weeks

 TemperatureHumidityPressure
High49 °F (Feb 9, 4:00 PM)98% (Jan 31, 8:00 AM)30.50 "Hg (Jan 31, 8:00 AM)
Low12 °F (Feb 3, 7:00 AM)32% (Feb 6, 1:00 PM)29.45 "Hg (Jan 28, 11:00 PM)
Average28 °F74%30.02 "Hg
* Reported Jan 28 9:00 PM — Feb 12 9:00 PM, St. Albert, Weather by CustomWeather, © 2016

Note: Actual official high and low records may vary slightly from our data, if they occured in-between our weather recording intervals... More about our weather records

Advertising

St. Albert Weather History for the Previous 24 Hours

 ConditionsComfort  
Time TempWeatherWind HumidityBarometerVisibility
9:00 PM
Fri, Feb 12
19 °FCold.9 mph91%30.05 "HgN/A
8:00 PM19 °FCold.8 mph91%30.07 "HgN/A
7:00 PM20 °FCold.15 mph88%30.09 "HgN/A
6:00 PM20 °FCold.10 mph92%30.12 "HgN/A
5:00 PM20 °FCold.14 mph92%30.14 "HgN/A
4:00 PM22 °FCold.13 mph85%30.17 "HgN/A
3:00 PM22 °FCold.12 mph85%30.17 "HgN/A
2:00 PM21 °FCold.10 mph87%30.22 "HgN/A
1:00 PM21 °FCold.12 mph86%30.26 "HgN/A
12:00 PM20 °FCold.14 mph86%30.29 "HgN/A
11:00 AM19 °FCold.14 mph96%30.32 "HgN/A
10:00 AM19 °FCold.13 mph91%30.35 "HgN/A
9:00 AM19 °FCold.12 mph90%30.37 "HgN/A
8:00 AM18 °FCold.12 mph93%30.39 "HgN/A
7:00 AM17 °FCold.10 mph94%30.41 "HgN/A
6:00 AM17 °FCold.9 mph93%30.42 "HgN/A
5:00 AM17 °FCold.9 mph91%30.45 "HgN/A
4:00 AM17 °FCold.9 mph88%30.47 "HgN/A
2:00 AM18 °FCold.7 mph81%30.48 "HgN/A
1:00 AM17 °FCold.8 mph86%30.48 "HgN/A
12:00 AM17 °FCold.9 mph85%30.49 "HgN/A
11:00 PM
Thu, Feb 11
18 °FCold.8 mph85%30.50 "HgN/A
10:00 PM18 °FCold.5 mph88%30.50 "HgN/A
Weather by CustomWeather, © 2016

See weather overviewHow to use our weather pages